[[{"header":{"parameterUnit":"m.s-1","parameterCategory":1,"la1":30.2991,"la2":30.254,"lo1":-89.0895,"lo2":-89.0444,"dy":0.0017,"dx":0.0017,"nx":28,"ny":28,"refTime":"2024-04-09T21:00:00:Z","depth":0,"parameterNumber":2,"parameterNumberName":"U-component_of_WINDS"},"data":[0,0,0,0,0,0,0,0,0,0,0,0,0,0,0,0,0,0,0,0,0,0,0,0,0,0,0,0,0,0,0,0,0,0,0,0,0,0,0,0,0,0,0,0,0,0,0,0,0,0,0,0,0,0,0,0,0,0,6.8185,6.8187,0,6.8379,6.8381,6.8383,6.8333,6.833,6.8326,6.8322,6.8523,6.8532,6.8541,0,0,0,0,0,0,0,0,0,0,0,0,0,6.7773,6.7781,6.8184,6.8187,6.8189,6.8378,6.8381,6.8384,6.8334,6.8329,6.8325,6.832,6.852,6.8531,6.8541,0,0,0,0,0,0,0,0,0,0,0,0,0,6.7958,6.7784,6.8184,6.8187,6.819,6.8378,6.8381,6.8384,6.8335,6.8329,6.8324,6.8318,6.8517,6.853,6.8543,6.874,0,0,6.8584,6.8589,0,0,0,0,0,0,0,0,6.7948,6.7973,6.8184,6.8187,6.819,6.8326,6.8309,6.8504,6.8336,6.828,6.8322,6.8315,6.8462,6.848,6.8529,6.875,6.8758,6.8585,6.8593,6.8599,6.8602,0,0,0,0,0,0,0,6.7935,6.7965,6.8261,6.8188,6.8191,6.818,6.82,6.8346,6.8401,6.8284,6.8281,6.8305,6.8463,6.8516,6.8533,6.8761,6.8584,6.8596,6.8605,6.861,6.9153,6.9159,0,0,0,0,0,0,6.7919,6.7954,6.8255,6.8267,6.8052,6.8192,6.8214,6.8288,6.8399,6.8411,6.8309,6.8302,6.8496,6.8518,6.854,6.8777,6.8599,6.8611,6.8619,6.9146,6.9154,6.9161,0,0,0,0,0,0,6.7911,6.7947,6.8247,6.811,6.8147,6.8205,6.8289,6.8295,6.8348,6.8418,6.8428,6.8354,6.8492,6.8521,6.869,6.8784,6.8617,6.8629,6.9139,6.9149,6.9158,6.9254,0,0,0,0,0,0,6.7899,6.7944,6.8019,6.8112,6.8155,6.8394,6.8294,6.8303,6.8371,6.8363,6.8462,6.8473,6.849,6.8671,6.8704,6.8799,6.864,6.9131,6.9143,6.9155,6.9243,6.9266,6.9286,0,0,0,0,0,6.7885,6.8039,6.8023,6.806,6.825,6.84,6.8424,6.844,6.8379,6.8455,6.85,6.847,6.8768,6.8688,6.8725,6.8826,6.9125,6.914,6.9154,6.9233,6.9261,6.9285,0,0,0,0,0,0,6.7957,6.8052,6.8035,6.8224,6.8304,6.8391,6.8488,6.8469,6.8569,6.8557,6.8573,6.8596,6.8769,6.8814,6.8724,6.9022,6.8938,6.896,6.8986,6.9013,6.9034,6.9019,6.8651,0,0,0,0,0,6.7995,6.8108,6.8185,6.8344,6.8385,6.843,6.8496,6.8501,6.8585,6.8618,6.8676,6.8759,6.8871,6.8945,6.9052,6.925,6.927,6.9337,6.9358,6.9376,6.9394,6.9501,6.9531,6.9208,6.9208,6.9208,0,0,6.8075,6.814,6.8211,6.8361,6.8423,6.854,6.8459,6.8586,6.8673,6.8638,6.8801,6.8846,6.894,6.9124,6.9208,6.9167,6.9488,6.9394,6.9407,6.9417,6.9519,6.9549,6.9577,6.9218,6.9216,6.9215,0,0,6.8279,6.834,6.8479,6.8543,6.8639,6.8667,6.8701,6.8791,6.8819,6.8983,6.8958,6.9063,6.9256,6.9323,6.9383,6.9613,6.9589,6.9648,6.9758,6.9862,6.9888,6.991,6.9991,7.002,6.9666,6.9667,6.9667,0,6.8366,6.854,6.8553,6.8683,6.8749,6.8722,6.8863,6.8925,6.9051,6.9098,6.9051,6.9292,6.9354,6.9552,6.9608,6.9658,6.9696,6.9636,6.9883,6.9906,6.9927,7.0004,7.0034,6.9673,6.9672,6.9672,6.9671,0,6.8642,6.8763,6.8864,6.8985,6.9063,6.9198,6.9232,6.931,6.9308,6.9341,6.9508,6.9581,6.9702,6.975,6.975,6.9949,6.992,6.9878,6.9793,6.9964,7.0036,7.0066,6.9682,6.968,6.9678,6.9676,0,0,6.8897,6.9023,6.906,6.9114,6.9217,6.9311,6.9445,6.9562,6.9628,6.9716,6.9828,6.9992,6.9954,7.0022,7.0029,7.0121,7.0296,7.0067,7.007,7.0106,7.0518,7.0548,7.0582,7.0281,7.0287,7.0292,7.051,0,6.9109,6.9343,6.9358,6.957,6.9682,6.9658,6.9774,6.985,6.9885,6.9986,7.0025,7.014,7.0081,7.0122,7.0211,7.0256,7.0379,7.0241,7.0385,7.039,7.036,7.062,7.0652,7.0854,7.0538,7.0543,7.0547,0,6.9388,6.9483,6.9705,6.9792,6.9839,6.9943,7.0051,7.0148,7.0234,7.0253,7.0329,7.0323,7.046,7.0372,7.056,7.0466,7.0526,7.0557,7.0565,7.0578,7.0477,7.0638,7.0919,7.0949,7.0592,7.0588,7.0585,0,6.955,6.9734,6.989,6.9938,7.0043,7.0116,7.0163,7.0243,7.0313,7.0408,7.0453,7.0563,7.0624,7.0709,7.0734,7.0667,7.0922,7.0835,7.0941,7.094,7.0994,7.099,7.1287,7.1036,7.1036,7.1035,7.1035,0,6.9785,6.9921,6.9964,7.006,7.0212,7.0229,7.038,7.0423,7.0494,7.0598,7.0585,7.0683,7.0711,7.0814,7.0834,7.0987,7.1015,7.1034,7.1037,7.1034,7.1031,7.1072,7.1058,7.1043,7.1042,7.104,7.1039,0,6.9991,7.0025,7.0193,7.0279,7.0303,7.0412,7.0485,7.0577,7.061,7.0742,7.0774,7.0826,7.0947,7.098,7.1126,7.1139,7.1318,7.131,7.1289,7.1288,7.1391,7.138,7.1723,7.1769,7.1489,7.1492,7.1494,0,7.0138,7.0242,7.0338,7.0406,7.0456,7.0567,7.0636,7.0657,7.0731,7.0836,7.0916,7.1035,7.1131,7.1325,7.1376,7.1487,7.148,7.1592,7.1496,7.1489,7.1479,7.1472,7.1482,7.161,7.1613,7.1615,7.1617,0,7.0394,7.0405,7.0506,7.0614,7.0697,7.0783,7.0866,7.0923,7.0955,7.1039,7.1161,7.1236,7.1383,7.1501,7.1613,7.1662,7.1646,7.1647,7.1677,7.1674,7.1657,7.1666,7.1336,7.1639,7.1637,7.1635,7.1634,7.1633,7.0574,7.0665,7.0746,7.0859,7.0923,7.1,7.109,7.1134,7.1236,7.1357,7.1363,7.1496,7.1579,7.1727,7.1783,7.1887,7.1853,7.1897,7.1908,7.1918,7.1926,7.1642,7.1908,7.1907,7.1906,7.1906,7.1906,0,7.0828,7.0879,7.0983,7.1097,7.1186,7.1162,7.1252,7.1327,7.1444,7.1522,7.1617,7.1757,7.1871,7.1931,7.2044,7.2116,7.2111,7.2145,7.2139,7.215,7.195,7.1912,7.2147,7.2147,7.2147,7.2147,7.2147,7.2147,7.0971,7.1123,7.1144,7.1327,7.1377,7.1506,7.1559,7.163,7.1692,7.1849,7.1943,7.1981,7.2052,7.217,7.2274,7.2288,7.233,7.2368,7.2378,7.219,7.2165,7.2141,7.2105,7.2377,7.2377,7.2569,7.2571,7.2572]},{"header":{"parameterUnit":"m.s-1","parameterCategory":1,"la1":30.2991,"la2":30.254,"lo1":-89.0895,"lo2":-89.0444,"dy":0.0017,"dx":0.0017,"nx":28,"ny":28,"refTime":"2024-04-09T21:00:00:Z","depth":0,"parameterNumber":3,"parameterNumberName":"V-component_of_WINDS"},"data":[0,0,0,0,0,0,0,0,0,0,0,0,0,0,0,0,0,0,0,0,0,0,0,0,0,0,0,0,0,0,0,0,0,0,0,0,0,0,0,0,0,0,0,0,0,0,0,0,0,0,0,0,0,0,0,0,0,0,1.6935,1.6935,0,1.6978,1.6979,1.6979,1.6953,1.6952,1.695,1.6949,1.6994,1.6996,1.6998,0,0,0,0,0,0,0,0,0,0,0,0,0,1.6828,1.6831,1.6935,1.6935,1.6936,1.6978,1.6979,1.6979,1.6953,1.6951,1.695,1.6949,1.6993,1.6996,1.6999,0,0,0,0,0,0,0,0,0,0,0,0,0,1.6874,1.6831,1.6935,1.6928,1.6928,1.6978,1.6979,1.6979,1.6953,1.6951,1.695,1.6948,1.6992,1.6995,1.6999,1.7059,0,0,1.701,1.7011,0,0,0,0,0,0,0,0,1.6871,1.6877,1.6928,1.6928,1.6928,1.6958,1.6958,1.7006,1.6954,1.6944,1.6949,1.6947,1.6983,1.6988,1.7,1.7061,1.7063,1.701,1.7012,1.7014,1.7015,0,0,0,0,0,0,0,1.6868,1.6875,1.6952,1.6929,1.6929,1.6922,1.6927,1.6967,1.6974,1.6944,1.6943,1.6948,1.6983,1.6996,1.7001,1.7063,1.701,1.7013,1.7015,1.7017,1.7174,1.7176,0,0,0,0,0,0,1.6865,1.6873,1.6951,1.6953,1.6894,1.6926,1.6931,1.695,1.6973,1.6975,1.695,1.6947,1.6991,1.6997,1.7002,1.7074,1.7014,1.7017,1.7019,1.7172,1.7175,1.7177,0,0,0,0,0,0,1.6863,1.6873,1.6949,1.6913,1.6922,1.693,1.6952,1.6952,1.6966,1.6977,1.6978,1.6962,1.699,1.6997,1.7045,1.7075,1.7019,1.7022,1.717,1.7173,1.7176,1.7217,0,0,0,0,0,0,1.686,1.6872,1.6895,1.6913,1.6924,1.6991,1.6954,1.6955,1.6972,1.6968,1.6989,1.6991,1.6989,1.7039,1.7048,1.7079,1.7025,1.7167,1.7171,1.7175,1.7213,1.7221,1.7228,0,0,0,0,0,1.6857,1.6905,1.6896,1.6906,1.6953,1.6993,1.6999,1.6996,1.6974,1.6998,1.7005,1.699,1.707,1.7045,1.7054,1.7086,1.7165,1.717,1.7175,1.7209,1.7219,1.7228,0,0,0,0,0,0,1.689,1.6907,1.6898,1.6954,1.6972,1.6988,1.7018,1.7007,1.7032,1.7027,1.7023,1.7027,1.7077,1.7086,1.7058,1.7145,1.7114,1.7121,1.7137,1.7147,1.7154,1.7151,1.7028,0,0,0,0,0,1.6904,1.6935,1.6948,1.6996,1.7006,1.701,1.7027,1.7023,1.7042,1.705,1.706,1.7079,1.7108,1.7128,1.7155,1.7213,1.7217,1.724,1.7247,1.7253,1.726,1.7291,1.7301,1.7192,1.7192,1.7192,0,0,1.6933,1.6946,1.6966,1.7003,1.7017,1.7049,1.7017,1.7052,1.7076,1.7055,1.7101,1.7109,1.7129,1.7183,1.7206,1.7192,1.729,1.7259,1.7264,1.7267,1.7297,1.7307,1.7316,1.7196,1.7195,1.7194,0,0,1.7003,1.7016,1.7057,1.7071,1.7092,1.7095,1.7104,1.7122,1.7127,1.7172,1.7157,1.7185,1.7235,1.7251,1.7265,1.7339,1.7326,1.7348,1.7388,1.7418,1.7427,1.7434,1.7461,1.7471,1.7354,1.7354,1.7354,0,1.7037,1.7085,1.708,1.7116,1.7133,1.7115,1.7156,1.717,1.7199,1.7211,1.7194,1.7256,1.7269,1.7325,1.7343,1.7355,1.7366,1.7346,1.7426,1.7433,1.744,1.7466,1.7476,1.7356,1.7356,1.7356,1.7355,0,1.7125,1.7159,1.7189,1.7218,1.7237,1.7276,1.7277,1.7298,1.7291,1.7295,1.7342,1.7356,1.7386,1.7398,1.7393,1.7454,1.7444,1.7426,1.7396,1.7453,1.7477,1.7487,1.736,1.7359,1.7358,1.7358,0,0,1.7219,1.7243,1.7255,1.7267,1.7288,1.7314,1.7351,1.738,1.7398,1.7418,1.745,1.7492,1.7476,1.7492,1.7488,1.7514,1.7572,1.7493,1.7494,1.7508,1.7641,1.7655,1.7666,1.7563,1.7565,1.7567,1.7639,0,1.7291,1.7357,1.7353,1.7415,1.7446,1.7428,1.7461,1.7477,1.7482,1.7508,1.7512,1.7543,1.7519,1.7528,1.7554,1.756,1.7599,1.7554,1.7593,1.7595,1.759,1.7678,1.7694,1.7761,1.7648,1.765,1.7651,0,1.7384,1.7407,1.7472,1.7488,1.7501,1.753,1.7556,1.7582,1.7599,1.76,1.7618,1.7609,1.7647,1.7614,1.7666,1.7636,1.7651,1.7656,1.7659,1.7663,1.7627,1.7686,1.7783,1.7793,1.7666,1.7664,1.7663,0,1.7447,1.7494,1.7539,1.755,1.7569,1.7591,1.76,1.7615,1.7633,1.7655,1.7666,1.7693,1.7708,1.7728,1.7726,1.7703,1.7779,1.7746,1.7781,1.7781,1.78,1.7799,1.7901,1.7808,1.7807,1.7807,1.7807,0,1.7528,1.7569,1.7567,1.7595,1.764,1.7634,1.7679,1.7686,1.77,1.7728,1.7714,1.7741,1.7736,1.7764,1.7762,1.7805,1.7812,1.7814,1.7813,1.7816,1.7816,1.7827,1.7823,1.781,1.7809,1.7809,1.7808,0,1.7606,1.7607,1.7655,1.7669,1.7674,1.7706,1.7718,1.7744,1.7747,1.7783,1.7791,1.7795,1.7826,1.7826,1.7861,1.786,1.7913,1.7907,1.7908,1.7907,1.7942,1.7939,1.8056,1.8071,1.7967,1.7968,1.7969,0,1.7659,1.769,1.7707,1.7725,1.7735,1.7765,1.7782,1.7777,1.7796,1.7818,1.7842,1.7871,1.7895,1.7945,1.7951,1.7977,1.7972,1.8011,1.7976,1.7978,1.7974,1.7972,1.7975,1.8018,1.8019,1.802,1.8021,0,1.7752,1.775,1.7776,1.7802,1.7824,1.7844,1.7862,1.7878,1.7875,1.7896,1.7928,1.7946,1.7982,1.8011,1.8037,1.8046,1.8033,1.8032,1.8042,1.8045,1.8045,1.8046,1.7928,1.803,1.8029,1.8028,1.8028,1.8027,1.782,1.7846,1.7862,1.7891,1.7905,1.7922,1.7947,1.7952,1.7979,1.8007,1.8002,1.8037,1.8053,1.8086,1.8097,1.8125,1.8111,1.8125,1.8129,1.8132,1.8137,1.8039,1.8129,1.8129,1.8129,1.8128,1.8128,0,1.7913,1.7922,1.7949,1.7975,1.7998,1.7983,1.8002,1.8022,1.8053,1.8069,1.8092,1.8128,1.8156,1.8164,1.8191,1.8211,1.8206,1.8219,1.8218,1.822,1.8147,1.8136,1.8222,1.8222,1.8222,1.8222,1.8222,1.8222,1.7964,1.8008,1.8008,1.8059,1.8067,1.8102,1.8114,1.813,1.8142,1.8183,1.8206,1.8211,1.8223,1.8251,1.8276,1.8277,1.8288,1.8303,1.8303,1.8235,1.8225,1.8216,1.8206,1.8306,1.8306,1.8374,1.8374,1.8375]}]]